Location: Antin
(43.3330°N, 0.2804°E)
Time: 23:37:05
(UTC+00:00)

Cosmos 1269 Rocket - Pass Details

Date: 16 October 2021
Orbit: 773 x 778 km, 74.1° (Epoch: 04 December)

Event Time Altitude Azimuth Distance (km) Brightness Sun altitude
Rises 19:04:44 0° 340° (NNW) 3,268 7.6 -20.9°
Reaches altitude 10° 19:07:08 10° 342° (NNW) 2,335 6.8 -21.3°
Maximum altitude 19:12:27 81° 70° (ENE) 791 3.9 -22.3°
Enters shadow 19:14:30 39° 152° (SSE) 1,158 4.6 -22.6°
